This demonstration page uses our WeatherBlox Daily Observations layout. Learn more.

Left ArrowRight Arrow

41.86663, -103.66717

Hourly Observations for August 14, 2021

Temp ( °F °C ) Dew Point ( °F °C ) Humidity (%) Winds ( mph kmh ) Pressure ( in mb ) Visibility ( mi km ) Precip ( " mm )
12:53 am 00:53 Clear 67 19.4 56 13.3 68 68 ESE 13 20 30.14 1021 10 16 N/A
1:53 am 01:53 Clear 66 18.9 59 15 78 78 ESE 10 17 30.13 1020 10 16 N/A
2:53 am 02:53 Clear 65 18.3 60 15.6 84 84 ESE 12 19 30.12 1020 10 16 N/A
3:53 am 03:53 Partly Cloudy 65 18.3 61 16.1 87 87 ESE 10 17 30.11 1020 10 16 N/A
4:53 am 04:53 Clear 64 17.8 60 15.6 87 87 E 7 11 30.13 1020 10 16 N/A
5:53 am 05:53 Clear 64 17.8 60 15.6 87 87 ESE 9 15 30.13 1020 10 16 N/A
6:53 am 06:53 Sunny 64 17.8 61 16.1 90 90 ESE 7 11 30.13 1020 8 13 N/A
7:53 am 07:53 Sunny 67 19.4 62 16.7 84 84 E 8 13 30.14 1021 9 14 N/A
8:02 am 08:02 Partly Cloudy 68 20 63 17 83 83 ESE 9 15 30.07 1018 9 14 N/A
8:53 am 08:53 Mostly Sunny 71 21.7 62 16.7 73 73 ESE 10 17 30.13 1020 10 16 N/A
9:53 am 09:53 Mostly Sunny 75 23.9 62 16.7 64 64 SE 14 22 30.11 1020 10 16 N/A
10:53 am 10:53 Sunny 80 26.7 62 16.7 54 54 ESE 8 13 30.09 1019 10 16 N/A
11:53 am 11:53 Sunny 84 28.9 62 16.7 48 48 E 9 15 30.06 1018 10 16 N/A
12:53 pm 12:53 Sunny 88 31.1 62 16.7 42 42 E 10 17 30.03 1017 10 16 N/A
1:53 pm 13:53 Sunny 91 32.8 62 16.7 38 38 E 12 19 30.00 1016 10 16 N/A
2:53 pm 14:53 Sunny 94 34.4 58 14.4 30 30 E 13 20 29.97 1015 10 16 N/A
3:53 pm 15:53 Sunny 94 34.4 59 15 31 31 E 13 20 29.93 1014 10 16 N/A
4:53 pm 16:53 Sunny 94 34.4 58 14.4 30 30 E 12 19 29.92 1013 10 16 N/A
5:53 pm 17:53 Sunny 92 33.3 59 15 33 33 E 9 15 29.91 1013 10 16 N/A
6:53 pm 18:53 Sunny 87 30.6 56 13.3 35 35 NE 14 22 29.92 1013 10 16 N/A
7:53 pm 19:53 Sunny 83 28.3 54 12.2 37 37 E 10 17 29.93 1014 10 16 N/A
8:53 pm 20:53 Clear 80 26.7 54 12.2 41 41 SE 16 26 29.95 1014 10 16 N/A
9:53 pm 21:53 Clear 76 24.4 57 13.9 52 52 ESE 10 17 29.96 1015 10 16 N/A
10:53 pm 22:53 Clear 71 21.7 59 15 66 66 E 7 11 29.95 1014 10 16 N/A
11:53 pm 23:53 Clear 69 20.6 60 15.6 73 73 E 12 19 29.95 1014 10 16 N/A

Powered by AerisWeather